Soldotna, AK

7:26 PM AKDT on August 22, 2017 (GMT -0800)
Soldotna

Weather History for PASX - June, 2013

Change the Weather History Date:

Monday, June 3, 2013

  Actual Average Record
Temperature  
Mean Temperature 50 °F -  
Max Temperature 57 °F 57 °F 76 °F (1957)
Min Temperature 44 °F 41 °F 31 °F (1956)
Degree Days  
Heating Degree Days 14    
Moisture  
Dew Point 36 °F    
Average Humidity 58    
Maximum Humidity 76    
Minimum Humidity 41    
Precipitation  
Precipitation 0.00 in - - ()
Sea Level Pressure  
Sea Level Pressure 29.88 in    
Wind  
Wind Speed 6 mph (ENE)    
Max Wind Speed 14 mph    
Max Gust Speed 16 mph    
Visibility 10 miles    
Events      
Averages and records for this station are not official NWS values.
T = Trace of Precipitation, MM = Missing Value Source: NWS Daily Summary

Daily Weather History Graph

Daily Weather History Graph

Search for Another Location

Airport or City:

Trip Planner

Search our weather history database for the weather conditions in past years. The results will help you decide how hot, cold, wet, or windy it might be!

Date:

Astronomy

Jun. 03, 2013 Rise Set
Actual Time 4:44 AM AKDT 11:21 PM AKDT
Civil Twilight 3:10 AM AKDT 12:57 AM AKDT
Nautical Twilight Sun does not set Sun does not set
Astronomical Twilight Sun does not set Sun does not set
Moon 3:06 AM AKDT (6/3) 5:53 PM AKDT (6/3)
Length of Visible Light 21h 46m
Length of Day
18h 36m
Waning Crescent, 20% of the Moon is Illuminated
Jun 3
Waning Crescent
Jun 8
New
Jun 16
First Quarter
Jun 23
Full
Jun 29
Last Quarter

Hourly Weather History & Observations

Time (AKDT) Temp. Windchill Dew Point Humidity Pressure Visibility Wind Dir Wind Speed Gust Speed Precip Events Conditions
12:16 AM 48.2 °F - 37.4 °F 66% 30.04 in 10.0 mi Calm Calm - N/A   Mostly Cloudy
12:36 AM 48.2 °F - 35.6 °F 62% 30.04 in 10.0 mi SE 4.6 mph - N/A   Overcast
12:56 AM 48.2 °F - 35.6 °F 62% 30.04 in 10.0 mi East 6.9 mph - N/A   Overcast
1:16 AM 46.4 °F 42.9 °F 37.4 °F 71% 30.04 in 10.0 mi East 6.9 mph - N/A   Mostly Cloudy
1:36 AM 46.4 °F 44.3 °F 37.4 °F 71% 30.04 in 10.0 mi East 4.6 mph - N/A   Overcast
1:56 AM 46.4 °F 45.2 °F 35.6 °F 66% 30.03 in 10.0 mi East 3.5 mph - N/A   Overcast
2:16 AM 46.4 °F 43.5 °F 35.6 °F 66% 30.03 in 10.0 mi East 5.8 mph - N/A   Overcast
2:36 AM 44.6 °F 41.4 °F 37.4 °F 76% 30.03 in 10.0 mi ESE 5.8 mph - N/A   Overcast
2:56 AM 44.6 °F 41.4 °F 37.4 °F 76% 30.02 in 10.0 mi East 5.8 mph - N/A   Overcast
3:16 AM 44.6 °F 42.2 °F 37.4 °F 76% 30.02 in 10.0 mi East 4.6 mph - N/A   Overcast
3:36 AM 44.6 °F 43.1 °F 37.4 °F 76% 30.01 in 10.0 mi East 3.5 mph - N/A   Overcast
3:56 AM 44.6 °F - 35.6 °F 71% 30.00 in 10.0 mi Calm Calm - N/A   Overcast
4:16 AM 44.6 °F - 37.4 °F 76% 30.00 in 10.0 mi Calm Calm - N/A   Overcast
4:36 AM 46.4 °F 44.3 °F 37.4 °F 71% 29.99 in 10.0 mi ENE 4.6 mph - N/A   Overcast
4:56 AM 46.4 °F 43.5 °F 37.4 °F 71% 29.98 in 10.0 mi ENE 5.8 mph - N/A   Overcast
5:16 AM 46.4 °F 44.3 °F 35.6 °F 66% 29.97 in 10.0 mi ENE 4.6 mph - N/A   Overcast
5:36 AM 46.4 °F 42.9 °F 35.6 °F 66% 29.97 in 10.0 mi ENE 6.9 mph - N/A   Overcast
5:56 AM 46.4 °F 43.5 °F 35.6 °F 66% 29.96 in 10.0 mi ENE 5.8 mph - N/A   Overcast
6:16 AM 46.4 °F 44.3 °F 35.6 °F 66% 29.96 in 10.0 mi ENE 4.6 mph - N/A   Overcast
6:36 AM 46.4 °F 44.3 °F 35.6 °F 66% 29.96 in 10.0 mi ENE 4.6 mph - N/A   Overcast
6:56 AM 46.4 °F 45.2 °F 35.6 °F 66% 29.95 in 10.0 mi NNE 3.5 mph - N/A   Overcast
7:16 AM 46.4 °F - 37.4 °F 71% 29.95 in 10.0 mi Calm Calm - N/A   Overcast
7:36 AM 46.4 °F 44.3 °F 37.4 °F 71% 29.95 in 10.0 mi NE 4.6 mph - N/A   Overcast
7:56 AM 48.2 °F - 37.4 °F 66% 29.94 in 10.0 mi NNE 3.5 mph - N/A   Overcast
8:16 AM 48.2 °F - 37.4 °F 66% 29.94 in 10.0 mi NE 5.8 mph - N/A   Overcast
8:36 AM 50.0 °F - 37.4 °F 62% 29.93 in 10.0 mi ENE 9.2 mph - N/A   Overcast
8:56 AM 50.0 °F - 37.4 °F 62% 29.93 in 10.0 mi ENE 6.9 mph - N/A   Overcast
9:16 AM 50.0 °F - 35.6 °F 58% 29.92 in 10.0 mi ENE 9.2 mph - N/A   Overcast
9:36 AM 51.8 °F - 37.4 °F 58% 29.92 in 10.0 mi ENE 4.6 mph - N/A   Overcast
9:56 AM 51.8 °F - 35.6 °F 54% 29.91 in 10.0 mi ENE 8.1 mph - N/A   Overcast
10:16 AM 51.8 °F - 35.6 °F 54% 29.90 in 10.0 mi East 9.2 mph - N/A   Overcast
10:36 AM 51.8 °F - 35.6 °F 54% 29.90 in 10.0 mi NE 9.2 mph - N/A   Overcast
10:56 AM 51.8 °F - 35.6 °F 54% 29.90 in 10.0 mi ENE 10.4 mph - N/A   Overcast
11:16 AM 53.6 °F - 35.6 °F 51% 29.89 in 10.0 mi East 8.1 mph - N/A   Overcast
11:36 AM 53.6 °F - 35.6 °F 51% 29.88 in 10.0 mi NE 9.2 mph - N/A   Overcast
11:56 AM 53.6 °F - 35.6 °F 51% 29.87 in 10.0 mi ENE 9.2 mph - N/A   Overcast
12:16 PM 53.6 °F - 35.6 °F 51% 29.87 in 10.0 mi ENE 8.1 mph - N/A   Overcast
12:36 PM 53.6 °F - 35.6 °F 51% 29.87 in 10.0 mi East 11.5 mph - N/A   Overcast
12:56 PM 53.6 °F - 35.6 °F 51% 29.87 in 10.0 mi East 9.2 mph 16.1 mph N/A   Overcast
1:16 PM 53.6 °F - 35.6 °F 51% 29.86 in 10.0 mi East 11.5 mph - N/A   Overcast
1:36 PM 53.6 °F - 35.6 °F 51% 29.86 in 10.0 mi NE 8.1 mph - N/A   Overcast
1:56 PM 53.6 °F - 37.4 °F 54% 29.86 in 10.0 mi NE 9.2 mph - N/A   Overcast
2:16 PM 53.6 °F - 37.4 °F 54% 29.85 in 10.0 mi NE 12.7 mph - N/A   Overcast
2:36 PM 55.4 °F - 35.6 °F 47% 29.84 in 10.0 mi NE 8.1 mph - N/A   Overcast
2:56 PM 55.4 °F - 37.4 °F 51% 29.83 in 10.0 mi NNE 9.2 mph - N/A   Overcast
3:16 PM 55.4 °F - 37.4 °F 51% 29.83 in 10.0 mi ENE 8.1 mph - N/A   Mostly Cloudy
3:36 PM 55.4 °F - 37.4 °F 51% 29.82 in 10.0 mi ENE 3.5 mph - N/A   Overcast
3:56 PM 55.4 °F - 37.4 °F 51% 29.82 in 10.0 mi East 9.2 mph - N/A   Overcast
4:16 PM 55.4 °F - 37.4 °F 51% 29.81 in 10.0 mi East 10.4 mph - N/A   Overcast
4:36 PM 55.4 °F - 37.4 °F 51% 29.81 in 10.0 mi NE 9.2 mph 16.1 mph N/A   Overcast
4:56 PM 55.4 °F - 37.4 °F 51% 29.80 in 10.0 mi NE 10.4 mph - N/A   Overcast
5:16 PM 55.4 °F - 37.4 °F 51% 29.79 in 10.0 mi ENE 9.2 mph - N/A   Mostly Cloudy
5:36 PM 57.2 °F - 37.4 °F 48% 29.79 in 10.0 mi NE 11.5 mph 16.1 mph N/A   Overcast
5:56 PM 57.2 °F - 37.4 °F 48% 29.78 in 10.0 mi ENE 6.9 mph - N/A   Overcast
6:16 PM 57.2 °F - 35.6 °F 44% 29.77 in 10.0 mi ESE 11.5 mph - N/A   Overcast
6:36 PM 57.2 °F - 33.8 °F 41% 29.77 in 10.0 mi East 11.5 mph - N/A   Overcast
6:56 PM 57.2 °F - 35.6 °F 44% 29.76 in 10.0 mi East 13.8 mph - N/A   Overcast
7:16 PM 55.4 °F - 35.6 °F 47% 29.76 in 10.0 mi East 11.5 mph - N/A   Overcast
7:56 PM 55.4 °F - 35.6 °F 47% 29.75 in 10.0 mi East 12.7 mph - N/A   Overcast
8:16 PM 55.4 °F - 35.6 °F 47% 29.75 in 10.0 mi ESE 12.7 mph - N/A   Overcast
8:36 PM 55.4 °F - 35.6 °F 47% 29.75 in 10.0 mi East 12.7 mph - N/A   Mostly Cloudy
8:56 PM 53.6 °F - 35.6 °F 51% 29.75 in 10.0 mi East 9.2 mph - N/A   Overcast
9:16 PM 53.6 °F - 35.6 °F 51% 29.74 in 10.0 mi East 10.4 mph - N/A   Overcast
9:36 PM 53.6 °F - 35.6 °F 51% 29.74 in 10.0 mi East 9.2 mph - N/A   Overcast
9:56 PM 53.6 °F - 35.6 °F 51% 29.74 in 10.0 mi East 6.9 mph - N/A   Overcast
10:16 PM 51.8 °F - 35.6 °F 54% 29.74 in 10.0 mi East 6.9 mph - N/A   Overcast
10:36 PM 51.8 °F - 35.6 °F 54% 29.74 in 10.0 mi East 8.1 mph - N/A   Overcast
10:56 PM 51.8 °F - 35.6 °F 54% 29.73 in 10.0 mi East 6.9 mph - N/A   Overcast
11:16 PM 51.8 °F - 35.6 °F 54% 29.73 in 10.0 mi East 6.9 mph - N/A   Overcast
11:36 PM 50.0 °F - 35.6 °F 58% 29.73 in 10.0 mi East 5.8 mph - N/A   Overcast
11:56 PM 50.0 °F - 35.6 °F 58% 29.72 in 10.0 mi East 5.8 mph - N/A   Overcast